Weather History for Detroit Metro, MI

Change the Weather History Date:

Saturday, August 17, 2013

  Actual Average Record
Temperature  
Mean Temperature 69 °F 72 °F  
Max Temperature 79 °F 82 °F 100 °F (1988)
Min Temperature 58 °F 63 °F 46 °F (1981)
Degree Days  
Heating Degree Days 0 0  
Month to date heating degree days 8 0  
Since 1 June heating degree days 35 37  
Since 1 July heating degree days 12 2  
Cooling Degree Days 4 7  
Month to date cooling degree days 80 134  
Year to date cooling degree days 646 620  
Since 1 June cooling degree days 543 572  
Growing Degree Days 18 (Base 50)    
Moisture  
Dew Point 55 °F    
Average Humidity 60    
Maximum Humidity 80    
Minimum Humidity 39    
Precipitation  
Precipitation 0.00 in 0.09 in 4.51 in (1926)
Month to date precipitation 2.50 1.73  
Year to date precipitation 27.50 21.16  
Snow  
Snow 0.00 in 0.00 in 0.00 in ()
Month to date snowfall 0.0 0.0  
Since 1 June snowfall 0.0 0.0  
Since 1 July snowfall 0.0 0.0  
Snow Depth 0.00 in    
Sea Level Pressure  
Sea Level Pressure 30.24 in    
Wind  
Wind Speed 3 mph (East)    
Max Wind Speed 10 mph    
Max Gust Speed -    
Visibility 10 miles    
Events      
T = Trace of Precipitation, MM = Missing Value Source: NWS Daily Summary

Daily Weather History Graph

Daily Weather History Graph

Search for Another Location

Airport:

Trip Planner

Search our weather history database for the weather conditions in past years. The results will help you decide how hot, cold, wet, or windy it might be!

Date:

Astronomy

Aug. 17, 2013 Rise Set
Actual Time 6:43 AM EDT 8:30 PM EDT
Civil Twilight 6:13 AM EDT 9:00 PM EDT
Nautical Twilight 5:36 AM EDT 9:37 PM EDT
Astronomical Twilight 4:57 AM EDT 10:16 PM EDT
Moon 5:47 PM EDT (8/17) 2:43 AM EDT (8/17)
Length of Visible Light 14h 47m
Length of Day
13h 47m
Waxing Gibbous, 84% of the Moon is Illuminated
Aug 17
Waxing Gibbous
Aug 20
Full
Aug 28
Last Quarter
Sep 5
New
Sep 12
First Quarter

Hourly Weather History & Observations

Time (EDT) Temp. Dew Point Humidity Pressure Visibility Wind Dir Wind Speed Gust Speed Precip Events Conditions
12:53 AM 64.0 °F 55.0 °F 73% 30.22 in 10.0 mi Calm Calm - N/A   Scattered Clouds
1:53 AM 63.0 °F 55.0 °F 75% 30.23 in 10.0 mi Calm Calm - N/A   Partly Cloudy
2:53 AM 60.1 °F 54.0 °F 80% 30.23 in 10.0 mi Calm Calm - N/A   Partly Cloudy
3:53 AM 61.0 °F 54.0 °F 78% 30.23 in 10.0 mi Calm Calm - N/A   Partly Cloudy
4:53 AM 59.0 °F 53.1 °F 81% 30.24 in 10.0 mi North 3.5 mph - N/A   Clear
5:53 AM 59.0 °F 53.1 °F 81% 30.25 in 10.0 mi Calm Calm - N/A   Clear
6:53 AM 59.0 °F 53.1 °F 81% 30.27 in 6.0 mi Calm Calm - N/A   Haze
7:53 AM 62.1 °F 55.0 °F 78% 30.27 in 7.0 mi Calm Calm - N/A   Partly Cloudy
8:53 AM 68.0 °F 57.9 °F 70% 30.27 in 7.0 mi Calm Calm - N/A   Scattered Clouds
9:53 AM 72.0 °F 57.9 °F 61% 30.28 in 8.0 mi Calm Calm - N/A   Mostly Cloudy
10:53 AM 73.9 °F 55.0 °F 52% 30.27 in 10.0 mi ENE 4.6 mph - N/A   Mostly Cloudy
11:53 AM 75.9 °F 54.0 °F 46% 30.26 in 10.0 mi ENE 4.6 mph - N/A   Mostly Cloudy
12:53 PM 78.1 °F 53.1 °F 42% 30.26 in 10.0 mi Variable 3.5 mph - N/A   Mostly Cloudy
1:53 PM 77.0 °F 52.0 °F 42% 30.25 in 10.0 mi ENE 8.1 mph - N/A   Mostly Cloudy
2:53 PM 78.1 °F 51.1 °F 39% 30.24 in 10.0 mi ESE 5.8 mph - N/A   Mostly Cloudy
3:53 PM 79.0 °F 52.0 °F 39% 30.22 in 10.0 mi East 5.8 mph - N/A   Mostly Cloudy
4:53 PM 79.0 °F 55.9 °F 45% 30.22 in 10.0 mi ENE 5.8 mph - N/A   Mostly Cloudy
5:53 PM 78.1 °F 55.9 °F 46% 30.22 in 10.0 mi East 4.6 mph - N/A   Mostly Cloudy
6:53 PM 77.0 °F 55.9 °F 48% 30.21 in 10.0 mi ESE 6.9 mph - N/A   Mostly Cloudy
7:53 PM 73.9 °F 57.9 °F 57% 30.21 in 10.0 mi SE 5.8 mph - N/A   Mostly Cloudy
8:53 PM 73.0 °F 55.9 °F 55% 30.21 in 10.0 mi East 3.5 mph - N/A   Scattered Clouds
9:53 PM 72.0 °F 55.0 °F 55% 30.22 in 10.0 mi Calm Calm - N/A   Partly Cloudy
10:53 PM 69.1 °F 55.9 °F 63% 30.22 in 10.0 mi East 4.6 mph - N/A   Partly Cloudy
11:53 PM 68.0 °F 57.9 °F 70% 30.21 in 9.0 mi Calm Calm - N/A   Partly Cloudy